<?xml version="1.0" encoding="UTF-8" standalone="no" ?>
<gpx xmlns="http://www.topografix.com/GPX/1/1" xmlns:xsi="http://www.w3.org/2001/XMLSchema-instance" xsi:schemaLocation="http://www.topografix.com/GPX/1/1 http://www.topografix.com/GPX/1/1/gpx.xsd" version="1.1" creator="VisuGPX - https://www.visugpx.com">
  <metadata>
    <name>Aravis, séjour du RCMF</name>
    <desc><![CDATA[Aravis, séjour du RCMF]]></desc>
  </metadata>
  <trk>
    <name><![CDATA[Sulens2]]></name>
    <trkseg>
      <trkpt lat="45.84526" lon="6.36443">
        <ele>1127</ele>
        <time>2004-01-19T18:03:57Z</time>
      </trkpt>
      <trkpt lat="45.8446" lon="6.36349">
        <ele>1136</ele>
        <time>2004-01-19T18:03:57Z</time>
      </trkpt>
      <trkpt lat="45.84395" lon="6.36383">
        <ele>1171</ele>
        <time>2004-01-19T18:03:57Z</time>
      </trkpt>
      <trkpt lat="45.84316" lon="6.36278">
        <ele>1190</ele>
        <time>2004-01-19T18:03:57Z</time>
      </trkpt>
      <trkpt lat="45.84271" lon="6.36286">
        <ele>1205</ele>
        <time>2004-01-19T18:03:57Z</time>
      </trkpt>
      <trkpt lat="45.84217" lon="6.36246">
        <ele>1213</ele>
        <time>2004-01-19T18:03:57Z</time>
      </trkpt>
      <trkpt lat="45.84176" lon="6.36252">
        <ele>1237</ele>
        <time>2004-01-19T18:03:57Z</time>
      </trkpt>
      <trkpt lat="45.84088" lon="6.361">
        <ele>1252</ele>
        <time>2004-01-19T18:03:57Z</time>
      </trkpt>
      <trkpt lat="45.8405" lon="6.3598">
        <ele>1264</ele>
        <time>2004-01-19T18:03:57Z</time>
      </trkpt>
      <trkpt lat="45.83962" lon="6.35917">
        <ele>1289</ele>
        <time>2004-01-19T18:03:57Z</time>
      </trkpt>
      <trkpt lat="45.83927" lon="6.3587">
        <ele>1303</ele>
        <time>2004-01-19T18:03:57Z</time>
      </trkpt>
      <trkpt lat="45.83867" lon="6.35945">
        <ele>1310</ele>
        <time>2004-01-19T18:03:57Z</time>
      </trkpt>
      <trkpt lat="45.8373" lon="6.35971">
        <ele>1315</ele>
        <time>2004-01-19T18:03:57Z</time>
      </trkpt>
      <trkpt lat="45.83666" lon="6.35932">
        <ele>1330</ele>
        <time>2004-01-19T18:03:57Z</time>
      </trkpt>
      <trkpt lat="45.8361" lon="6.35836">
        <ele>1327</ele>
        <time>2004-01-19T18:03:57Z</time>
      </trkpt>
      <trkpt lat="45.83552" lon="6.35814">
        <ele>1346</ele>
        <time>2004-01-19T18:03:57Z</time>
      </trkpt>
      <trkpt lat="45.83481" lon="6.35894">
        <ele>1371</ele>
        <time>2004-01-19T18:03:57Z</time>
      </trkpt>
      <trkpt lat="45.83442" lon="6.35971">
        <ele>1378</ele>
        <time>2004-01-19T18:03:57Z</time>
      </trkpt>
      <trkpt lat="45.83402" lon="6.36001">
        <ele>1379</ele>
        <time>2004-01-19T18:03:57Z</time>
      </trkpt>
      <trkpt lat="45.83367" lon="6.36012">
        <ele>1378</ele>
        <time>2004-01-19T18:03:57Z</time>
      </trkpt>
      <trkpt lat="45.83292" lon="6.35917">
        <ele>1425</ele>
        <time>2004-01-19T18:03:57Z</time>
      </trkpt>
      <trkpt lat="45.83239" lon="6.35915">
        <ele>1434</ele>
        <time>2004-01-19T18:03:57Z</time>
      </trkpt>
      <trkpt lat="45.83297" lon="6.36038">
        <ele>1457</ele>
        <time>2004-01-19T18:03:57Z</time>
      </trkpt>
      <trkpt lat="45.83247" lon="6.36016">
        <ele>1447</ele>
        <time>2004-01-19T18:03:57Z</time>
      </trkpt>
      <trkpt lat="45.83215" lon="6.36027">
        <ele>1458</ele>
        <time>2004-01-19T18:03:57Z</time>
      </trkpt>
      <trkpt lat="45.83213" lon="6.36126">
        <ele>1487</ele>
        <time>2004-01-19T18:03:57Z</time>
      </trkpt>
      <trkpt lat="45.832" lon="6.36138">
        <ele>1483</ele>
        <time>2004-01-19T18:03:57Z</time>
      </trkpt>
      <trkpt lat="45.83234" lon="6.36132">
        <ele>1499</ele>
        <time>2004-01-19T18:03:57Z</time>
      </trkpt>
      <trkpt lat="45.83301" lon="6.36248">
        <ele>1517</ele>
        <time>2004-01-19T18:03:57Z</time>
      </trkpt>
      <trkpt lat="45.83417" lon="6.36299">
        <ele>1539</ele>
        <time>2004-01-19T18:03:57Z</time>
      </trkpt>
      <trkpt lat="45.8355" lon="6.36413">
        <ele>1577</ele>
        <time>2004-01-19T18:03:57Z</time>
      </trkpt>
      <trkpt lat="45.83595" lon="6.36469">
        <ele>1587</ele>
        <time>2004-01-19T18:03:57Z</time>
      </trkpt>
      <trkpt lat="45.83618" lon="6.36508">
        <ele>1585</ele>
        <time>2004-01-19T18:03:57Z</time>
      </trkpt>
      <trkpt lat="45.83638" lon="6.36546">
        <ele>1591</ele>
        <time>2004-01-19T18:03:57Z</time>
      </trkpt>
      <trkpt lat="45.83468" lon="6.366">
        <ele>1632</ele>
        <time>2004-01-19T18:03:57Z</time>
      </trkpt>
      <trkpt lat="45.83324" lon="6.36619">
        <ele>1650</ele>
        <time>2004-01-19T18:03:57Z</time>
      </trkpt>
      <trkpt lat="45.83269" lon="6.36649">
        <ele>1662</ele>
        <time>2004-01-19T18:03:57Z</time>
      </trkpt>
      <trkpt lat="45.83181" lon="6.36658">
        <ele>1672</ele>
        <time>2004-01-19T18:03:57Z</time>
      </trkpt>
      <trkpt lat="45.83091" lon="6.36739">
        <ele>1692</ele>
        <time>2004-01-19T18:03:57Z</time>
      </trkpt>
      <trkpt lat="45.83041" lon="6.36744">
        <ele>1699</ele>
        <time>2004-01-19T18:03:57Z</time>
      </trkpt>
      <trkpt lat="45.8305" lon="6.36786">
        <ele>1718</ele>
        <time>2004-01-19T18:03:57Z</time>
      </trkpt>
      <trkpt lat="45.83028" lon="6.36857">
        <ele>1747</ele>
        <time>2004-01-19T18:03:57Z</time>
      </trkpt>
      <trkpt lat="45.83035" lon="6.36879">
        <ele>1756</ele>
        <time>2004-01-19T18:03:57Z</time>
      </trkpt>
      <trkpt lat="45.8299" lon="6.36937">
        <ele>1776</ele>
        <time>2004-01-19T18:03:57Z</time>
      </trkpt>
      <trkpt lat="45.82973" lon="6.36992">
        <ele>1790</ele>
        <time>2004-01-19T18:03:57Z</time>
      </trkpt>
      <trkpt lat="45.82975" lon="6.37044">
        <ele>1795</ele>
        <time>2004-01-19T18:03:57Z</time>
      </trkpt>
      <trkpt lat="45.82947" lon="6.37134">
        <ele>1828</ele>
        <time>2004-01-19T18:03:57Z</time>
      </trkpt>
      <trkpt lat="45.82912" lon="6.37188">
        <ele>1836</ele>
        <time>2004-01-19T18:03:57Z</time>
      </trkpt>
      <trkpt lat="45.8293" lon="6.37166">
        <ele>1835</ele>
        <time>2004-01-19T18:03:57Z</time>
      </trkpt>
      <trkpt lat="45.82756" lon="6.37147">
        <ele>1830</ele>
        <time>2004-01-19T18:03:57Z</time>
      </trkpt>
      <trkpt lat="45.82404" lon="6.36975">
        <ele>1743</ele>
        <time>2004-01-19T18:03:57Z</time>
      </trkpt>
      <trkpt lat="45.82318" lon="6.36881">
        <ele>1764</ele>
        <time>2004-01-19T18:03:57Z</time>
      </trkpt>
      <trkpt lat="45.82299" lon="6.36763">
        <ele>1767</ele>
        <time>2004-01-19T18:03:57Z</time>
      </trkpt>
      <trkpt lat="45.8238" lon="6.36671">
        <ele>1749</ele>
        <time>2004-01-19T18:03:57Z</time>
      </trkpt>
      <trkpt lat="45.82451" lon="6.36615">
        <ele>1738</ele>
        <time>2004-01-19T18:03:57Z</time>
      </trkpt>
      <trkpt lat="45.82618" lon="6.3654">
        <ele>1687</ele>
        <time>2004-01-19T18:03:57Z</time>
      </trkpt>
      <trkpt lat="45.82597" lon="6.36486">
        <ele>1677</ele>
        <time>2004-01-19T18:03:57Z</time>
      </trkpt>
      <trkpt lat="45.82642" lon="6.36471">
        <ele>1661</ele>
        <time>2004-01-19T18:03:57Z</time>
      </trkpt>
      <trkpt lat="45.82706" lon="6.36529">
        <ele>1634</ele>
        <time>2004-01-19T18:03:57Z</time>
      </trkpt>
      <trkpt lat="45.82706" lon="6.36533">
        <ele>1643</ele>
        <time>2004-01-19T18:03:57Z</time>
      </trkpt>
      <trkpt lat="45.82719" lon="6.36548">
        <ele>1632</ele>
        <time>2004-01-19T18:03:57Z</time>
      </trkpt>
      <trkpt lat="45.82799" lon="6.36559">
        <ele>1610</ele>
        <time>2004-01-19T18:03:57Z</time>
      </trkpt>
      <trkpt lat="45.82807" lon="6.36503">
        <ele>1597</ele>
        <time>2004-01-19T18:03:57Z</time>
      </trkpt>
      <trkpt lat="45.82837" lon="6.36443">
        <ele>1592</ele>
        <time>2004-01-19T18:03:57Z</time>
      </trkpt>
      <trkpt lat="45.82874" lon="6.36409">
        <ele>1578</ele>
        <time>2004-01-19T18:03:57Z</time>
      </trkpt>
      <trkpt lat="45.82949" lon="6.36394">
        <ele>1554</ele>
        <time>2004-01-19T18:03:57Z</time>
      </trkpt>
      <trkpt lat="45.82977" lon="6.36362">
        <ele>1544</ele>
        <time>2004-01-19T18:03:57Z</time>
      </trkpt>
      <trkpt lat="45.82985" lon="6.36306">
        <ele>1531</ele>
        <time>2004-01-19T18:03:57Z</time>
      </trkpt>
      <trkpt lat="45.83054" lon="6.36271">
        <ele>1504</ele>
        <time>2004-01-19T18:03:57Z</time>
      </trkpt>
      <trkpt lat="45.83129" lon="6.36203">
        <ele>1489</ele>
        <time>2004-01-19T18:03:57Z</time>
      </trkpt>
      <trkpt lat="45.83146" lon="6.36173">
        <ele>1486</ele>
        <time>2004-01-19T18:03:57Z</time>
      </trkpt>
      <trkpt lat="45.8317" lon="6.36166">
        <ele>1476</ele>
        <time>2004-01-19T18:03:57Z</time>
      </trkpt>
      <trkpt lat="45.8317" lon="6.36123">
        <ele>1514</ele>
        <time>2004-01-19T18:03:57Z</time>
      </trkpt>
      <trkpt lat="45.83206" lon="6.36074">
        <ele>1487</ele>
        <time>2004-01-19T18:03:57Z</time>
      </trkpt>
      <trkpt lat="45.83211" lon="6.36081">
        <ele>1476</ele>
        <time>2004-01-19T18:03:57Z</time>
      </trkpt>
      <trkpt lat="45.83204" lon="6.36027">
        <ele>1474</ele>
        <time>2004-01-19T18:03:57Z</time>
      </trkpt>
      <trkpt lat="45.83247" lon="6.35926">
        <ele>1449</ele>
        <time>2004-01-19T18:03:57Z</time>
      </trkpt>
      <trkpt lat="45.83236" lon="6.35909">
        <ele>1446</ele>
        <time>2004-01-19T18:03:57Z</time>
      </trkpt>
      <trkpt lat="45.83301" lon="6.35913">
        <ele>1434</ele>
        <time>2004-01-19T18:03:57Z</time>
      </trkpt>
      <trkpt lat="45.8335" lon="6.35952">
        <ele>1433</ele>
        <time>2004-01-19T18:03:57Z</time>
      </trkpt>
      <trkpt lat="45.83389" lon="6.36014">
        <ele>1432</ele>
        <time>2004-01-19T18:03:57Z</time>
      </trkpt>
      <trkpt lat="45.83438" lon="6.35971">
        <ele>1426</ele>
        <time>2004-01-19T18:03:57Z</time>
      </trkpt>
      <trkpt lat="45.8346" lon="6.35894">
        <ele>1426</ele>
        <time>2004-01-19T18:03:57Z</time>
      </trkpt>
      <trkpt lat="45.83554" lon="6.35782">
        <ele>1389</ele>
        <time>2004-01-19T18:03:57Z</time>
      </trkpt>
      <trkpt lat="45.83597" lon="6.35799">
        <ele>1388</ele>
        <time>2004-01-19T18:03:57Z</time>
      </trkpt>
      <trkpt lat="45.83627" lon="6.35868">
        <ele>1382</ele>
        <time>2004-01-19T18:03:57Z</time>
      </trkpt>
      <trkpt lat="45.83745" lon="6.35956">
        <ele>1362</ele>
        <time>2004-01-19T18:03:57Z</time>
      </trkpt>
      <trkpt lat="45.83807" lon="6.35928">
        <ele>1354</ele>
        <time>2004-01-19T18:03:57Z</time>
      </trkpt>
      <trkpt lat="45.83869" lon="6.35947">
        <ele>1328</ele>
        <time>2004-01-19T18:03:57Z</time>
      </trkpt>
      <trkpt lat="45.83891" lon="6.3593">
        <ele>1325</ele>
        <time>2004-01-19T18:03:57Z</time>
      </trkpt>
      <trkpt lat="45.83904" lon="6.35898">
        <ele>1320</ele>
        <time>2004-01-19T18:03:57Z</time>
      </trkpt>
      <trkpt lat="45.83957" lon="6.35872">
        <ele>1299</ele>
        <time>2004-01-19T18:03:57Z</time>
      </trkpt>
      <trkpt lat="45.8396" lon="6.35907">
        <ele>1295</ele>
        <time>2004-01-19T18:03:57Z</time>
      </trkpt>
      <trkpt lat="45.84026" lon="6.35995">
        <ele>1296</ele>
        <time>2004-01-19T18:03:57Z</time>
      </trkpt>
      <trkpt lat="45.84189" lon="6.36164">
        <ele>1290</ele>
        <time>2004-01-19T18:03:57Z</time>
      </trkpt>
      <trkpt lat="45.84193" lon="6.36196">
        <ele>1233</ele>
        <time>2004-01-19T18:03:57Z</time>
      </trkpt>
      <trkpt lat="45.84224" lon="6.36239">
        <ele>1233</ele>
        <time>2004-01-19T18:03:57Z</time>
      </trkpt>
      <trkpt lat="45.84537" lon="6.36467">
        <ele>1105</ele>
        <time>2004-01-19T18:03:57Z</time>
      </trkpt>
    </trkseg>
  </trk>
</gpx>